FW9021 Weather Reports


Display with metric or nautical units.
time (UTC)temp
F
wind
direction
speed
MPH
gust
MPH
rain 1hr
in
rain 24hr
in
rain mn
in
humidity
%
barometer
mb
20260831050538 71 55 0.0 2.0 0.00 0.00 0.00 85 1021.4
20260831050100 71 55 0.0 2.0 0.00 0.00 0.00 85 1021.4
20260831045538 71 0 0.0 2.0 0.00 0.00 0.00 85 1021.3
20260831045040 71 55 0.0 2.0 0.00 0.00 0.00 85 1021.2
20260831044608 71 55 0.0 2.0 0.00 0.00 0.00 85 1021.3
20260831044040 71 55 0.0 2.0 0.00 0.00 0.00 85 1021.1
20260831043537 72 0 0.0 2.0 0.00 0.00 0.00 85 1021.3
20260831043059 72 55 0.0 2.0 0.00 0.00 0.00 85 1021.2
20260831042537 72 55 0.0 2.0 0.00 0.00 0.00 85 1021.3
20260831042040 72 0 1.0 2.0 0.00 0.00 0.00 85 1021.3
20260831041612 72 55 0.0 3.0 0.00 0.00 0.00 85 1021.3
20260831041038 72 0 0.0 3.0 0.00 0.00 0.00 85 1021.4
20260831040539 72 55 2.0 3.0 0.00 0.00 0.00 85 1021.3
20260831040058 72 26 0.0 2.0 0.00 0.00 0.00 85 1021.4
20260831035538 72 0 1.0 3.0 0.00 0.00 0.00 85 1021.3
20260831035045 73 40 0.0 4.0 0.00 0.00 0.00 85 1021.3
20260831034602 73 40 2.0 4.0 0.00 0.00 0.00 85 1021.3
20260831034042 73 63 0.0 2.0 0.00 0.00 0.00 85 1021.3
20260831033538 73 0 0.0 2.0 0.00 0.00 0.00 85 1021.3
20260831033101 73 63 1.0 2.0 0.00 0.00 0.00 85 1021.4
20260831032539 73 0 1.0 2.0 0.00 0.00 0.00 85 1021.4
20260831032039 73 74 1.0 2.0 0.00 0.00 0.00 85 1021.4
20260831031555 73 0 1.0 2.0 0.00 0.00 0.00 85 1021.5
20260831031038 73 74 1.0 2.0 0.00 0.00 0.00 85 1021.5
20260831030539 73 0 0.0 2.0 0.00 0.00 0.00 85 1021.5
20260831030053 73 74 0.0 2.0 0.00 0.00 0.00 85 1021.5
20260831025538 74 74 0.0 2.0 0.00 0.00 0.00 85 1021.5
20260831025038 74 74 1.0 3.0 0.00 0.00 0.00 85 1021.5
20260831024559 74 74 1.0 3.0 0.00 0.00 0.00 85 1021.5
20260831024038 74 51 1.0 2.0 0.00 0.00 0.00 85 1021.5
20260831023538 74 90 1.0 2.0 0.00 0.00 0.00 85 1021.6
20260831023104 74 90 1.0 2.0 0.00 0.00 0.00 85 1021.5
20260831022538 74 51 1.0 3.0 0.00 0.00 0.00 85 1021.6
20260831022040 75 39 1.0 3.0 0.00 0.00 0.00 85 1021.5
20260831021555 75 29 0.0 4.0 0.00 0.00 0.00 84 1021.4
20260831021040 75 0 1.0 5.0 0.00 0.00 0.00 84 1021.4
20260831020540 75 39 2.0 5.0 0.00 0.00 0.00 84 1021.3
20260831015539 75 50 1.0 3.0 0.00 0.00 0.00 84 1021.3
20260831015039 75 49 0.0 3.0 0.00 0.00 0.00 84 1021.1
20260831014557 75 47 1.0 2.0 0.00 0.00 0.00 84 1021.1
20260831014041 76 59 1.0 2.0 0.00 0.00 0.00 83 1021.0
20260831013541 76 59 0.0 2.0 0.00 0.00 0.00 84 1021.0
20260831013106 76 0 0.0 2.0 0.00 0.00 0.00 84 1020.9
20260831012540 76 0 0.0 2.0 0.00 0.00 0.00 84 1020.7
20260831012041 76 59 0.0 2.0 0.00 0.00 0.00 83 1020.7
20260831011550 76 0 0.0 2.0 0.00 0.00 0.00 83 1020.7
20260831011039 76 59 1.0 2.0 0.00 0.00 0.00 83 1020.7
20260831010542 77 59 1.0 2.0 0.00 0.00 0.00 83 1020.6
20260831010058 77 59 1.0 2.0 0.00 0.00 0.00 83 1020.6
20260831005546 77 59 0.0 2.0 0.00 0.00 0.00 82 1020.3
20260831005040 77 59 1.0 2.0 0.00 0.00 0.00 82 1020.4
20260831004558 77 59 0.0 2.0 0.00 0.00 0.00 82 1020.4
20260831004039 77 51 0.0 2.0 0.00 0.00 0.00 82 1020.3
20260831003543 78 0 0.0 2.0 0.00 0.00 0.00 81 1020.2
20260831003055 78 78 0.0 2.0 0.00 0.00 0.00 81 1020.1
20260831002539 78 78 0.0 2.0 0.00 0.00 0.00 80 1020.2
20260831002039 78 0 0.0 2.0 0.00 0.00 0.00 80 1020.2
20260831001559 79 78 1.0 2.0 0.00 0.00 0.00 80 1020.0
20260831001042 79 0 0.0 2.0 0.00 0.00 0.00 79 1020.0
20260831000540 79 0 0.0 2.0 0.00 0.00 0.00 78 1020.0
20260831000054 80 79 0.0 2.0 0.00 0.00 0.00 78 1020.0
20260830235542 80 72 0.0 2.0 0.00 0.00 0.00 77 1020.0
20260830235040 80 0 0.0 2.0 0.00 0.00 0.00 77 1020.0
20260830234549 81 72 1.0 2.0 0.00 0.00 0.00 75 1020.0
20260830234040 81 69 1.0 2.0 0.00 0.00 0.00 75 1019.9
20260830233539 82 60 1.0 2.0 0.00 0.00 0.00 74 1019.9
20260830233046 82 0 0.0 2.0 0.00 0.00 0.00 73 1019.8
20260830232543 83 60 1.0 3.0 0.00 0.00 0.00 72 1019.9
20260830232040 83 60 0.0 3.0 0.00 0.00 0.00 71 1019.8
20260830231602 83 352 1.0 3.0 0.00 0.00 0.00 71 1019.8
20260830231040 84 0 0.0 3.0 0.00 0.00 0.00 68 1019.9
20260830230540 84 0 1.0 3.0 0.00 0.00 0.00 67 1019.8
20260830230052 85 35 1.0 3.0 0.00 0.00 0.00 65 1019.8
20260830225540 86 67 1.0 3.0 0.00 0.00 0.00 64 1019.9
20260830225040 87 10 1.0 3.0 0.00 0.00 0.00 62 1019.7
20260830224601 87 58 1.0 3.0 0.00 0.00 0.00 61 1019.7
20260830224040 87 49 1.0 3.0 0.00 0.00 0.00 60 1019.6
20260830223541 87 34 1.0 3.0 0.00 0.00 0.00 61 1019.8
20260830223104 87 39 0.0 3.0 0.00 0.00 0.00 59 1019.8
20260830222544 87 39 1.0 4.0 0.00 0.00 0.00 59 1019.9
20260830222040 87 248 1.0 4.0 0.00 0.00 0.00 59 1019.9
20260830221606 87 19 1.0 3.0 0.00 0.00 0.00 58 1019.9
20260830221040 87 71 1.0 3.0 0.00 0.00 0.00 58 1019.9
20260830220540 87 53 1.0 4.0 0.00 0.00 0.00 60 1019.7
20260830220053 87 100 2.0 4.0 0.00 0.00 0.00 59 1019.8
20260830215540 87 242 1.0 4.0 0.00 0.00 0.00 59 1019.8
20260830215043 86 79 1.0 4.0 0.00 0.00 0.00 62 1019.8
20260830214602 86 252 2.0 5.0 0.00 0.00 0.00 61 1019.8
20260830214039 86 240 3.0 5.0 0.00 0.00 0.00 60 1019.8
20260830213540 86 254 2.0 5.0 0.00 0.00 0.00 61 1019.8
20260830213107 85 252 2.0 7.0 0.00 0.00 0.00 60 1019.8
20260830212542 85 227 4.0 8.0 0.00 0.00 0.00 61 1019.8
20260830212040 85 257 3.0 8.0 0.00 0.00 0.00 62 1019.8
20260830211604 85 252 4.0 8.0 0.00 0.00 0.00 60 1019.8
20260830211040 85 248 3.0 8.0 0.00 0.00 0.00 60 1019.8
20260830210539 85 248 2.0 8.0 0.00 0.00 0.00 60 1019.8
20260830210110 85 249 4.0 8.0 0.00 0.00 0.00 60 1019.9
20260830205539 85 253 3.0 7.0 0.00 0.00 0.00 60 1019.8
20260830205041 85 242 4.0 7.0 0.00 0.00 0.00 60 1019.9
20260830204603 85 254 4.0 7.0 0.00 0.00 0.00 61 1020.0
20260830204042 85 245 4.0 8.0 0.00 0.00 0.00 61 1020.0
20260830203540 84 250 5.0 8.0 0.00 0.00 0.00 62 1020.1
20260830203105 84 261 2.0 7.0 0.00 0.00 0.00 61 1020.1
20260830202540 84 284 3.0 8.0 0.00 0.00 0.00 62 1020.1
20260830202043 84 250 3.0 8.0 0.00 0.00 0.00 64 1020.2
20260830201602 84 232 3.0 7.0 0.00 0.00 0.00 63 1020.3
20260830201040 84 244 4.0 7.0 0.00 0.00 0.00 64 1020.3
20260830200539 84 251 4.0 7.0 0.00 0.00 0.00 64 1020.3
20260830200105 84 252 4.0 7.0 0.00 0.00 0.00 63 1020.4
20260830195540 84 253 4.0 7.0 0.00 0.00 0.00 65 1020.5
20260830195040 83 248 4.0 7.0 0.00 0.00 0.00 64 1020.5
20260830194557 83 254 3.0 6.0 0.00 0.00 0.00 64 1020.6
20260830194040 83 249 3.0 7.0 0.00 0.00 0.00 65 1020.7
20260830193540 83 257 3.0 7.0 0.00 0.00 0.00 64 1020.8
20260830193058 83 236 4.0 7.0 0.00 0.00 0.00 65 1020.8
20260830192540 84 257 3.0 4.0 0.00 0.00 0.00 65 1020.8
20260830192039 83 261 2.0 5.0 0.00 0.00 0.00 64 1020.9
20260830191559 83 257 2.0 8.0 0.00 0.00 0.00 64 1021.0
20260830191039 84 225 3.0 8.0 0.00 0.00 0.00 64 1021.0
20260830190539 83 217 1.0 4.0 0.00 0.00 0.00 64 1021.1
20260830190058 83 262 2.0 4.0 0.00 0.00 0.00 66 1021.3
20260830185539 83 261 2.0 5.0 0.00 0.00 0.00 67 1021.3
20260830185041 82 297 1.0 7.0 0.00 0.00 0.00 67 1021.5
20260830184553 82 351 3.0 7.0 0.00 0.00 0.00 67 1021.4
20260830184040 82 15 4.0 6.0 0.00 0.00 0.00 66 1021.5
20260830183540 82 31 2.0 5.0 0.00 0.00 0.00 67 1021.7
20260830183101 82 28 1.0 4.0 0.00 0.00 0.00 68 1021.9
20260830182540 82 5 2.0 4.0 0.00 0.00 0.00 68 1021.8
20260830182041 82 360 2.0 4.0 0.00 0.00 0.00 68 1021.9
20260830181559 82 26 1.0 4.0 0.00 0.00 0.00 70 1021.9
20260830181040 82 102 1.0 6.0 0.00 0.00 0.00 70 1022.0
20260830180541 82 41 1.0 6.0 0.00 0.00 0.00 69 1022.1
20260830180101 82 17 0.0 3.0 0.00 0.00 0.00 68 1022.1
20260830175540 82 288 1.0 7.0 0.00 0.00 0.00 68 1022.2
20260830175040 81 271 4.0 7.0 0.00 0.00 0.00 69 1022.2
20260830174554 81 263 4.0 7.0 0.00 0.00 0.00 70 1022.2
20260830174039 81 285 3.0 6.0 0.00 0.00 0.00 70 1022.3
20260830173539 81 277 2.0 5.0 0.00 0.00 0.00 70 1022.4
20260830173100 81 271 2.0 5.0 0.00 0.00 0.00 70 1022.4
20260830172540 81 242 1.0 6.0 0.00 0.00 0.00 71 1022.6
20260830172040 81 250 3.0 8.0 0.00 0.00 0.00 73 1022.7
20260830171559 80 275 2.0 10.0 0.00 0.00 0.00 73 1022.7
20260830171040 80 278 4.0 10.0 0.00 0.00 0.00 72 1022.7
20260830170540 80 240 5.0 11.0 0.00 0.00 0.00 73 1022.8
20260830170052 80 260 7.0 11.0 0.00 0.00 0.00 73 1022.9
20260830165537 80 286 4.0 10.0 0.00 0.00 0.00 73 1023.0
20260830165037 80 256 5.0 10.0 0.00 0.00 0.00 74 1022.9
20260830164604 80 263 3.0 8.0 0.00 0.00 0.00 75 1023.0
20260830164038 79 35 3.0 7.0 0.00 0.00 0.00 76 1023.0
20260830163538 79 270 3.0 6.0 0.00 0.00 0.00 76 1023.0
20260830163053 79 272 2.0 8.0 0.00 0.00 0.00 76 1023.0
20260830162538 79 296 1.0 11.0 0.00 0.00 0.00 78 1023.1
20260830162038 79 251 4.0 11.0 0.00 0.00 0.00 77 1023.0
20260830161552 79 254 6.0 11.0 0.00 0.00 0.00 76 1023.1
20260830161037 79 258 5.0 11.0 0.00 0.00 0.00 76 1023.2
20260830160537 79 241 7.0 11.0 0.00 0.00 0.00 77 1023.4
20260830155537 79 257 4.0 7.0 0.00 0.00 0.00 77 1023.4
20260830155038 79 281 1.0 4.0 0.00 0.00 0.00 76 1023.3
20260830154557 79 344 2.0 7.0 0.00 0.00 0.00 77 1023.3
20260830154038 78 352 1.0 7.0 0.00 0.00 0.00 78 1023.4
20260830153537 78 246 2.0 7.0 0.00 0.00 0.00 79 1023.4
20260830153056 78 277 3.0 7.0 0.00 0.00 0.00 79 1023.4
20260830152538 78 254 2.0 6.0 0.00 0.00 0.00 79 1023.3
20260830152038 78 234 1.0 8.0 0.00 0.00 0.00 79 1023.4
20260830151553 78 311 3.0 8.0 0.00 0.00 0.00 80 1023.3
20260830151041 77 242 2.0 8.0 0.00 0.00 0.00 81 1023.4
20260830150538 77 295 2.0 9.0 0.00 0.00 0.00 81 1023.4
20260830145540 77 240 7.0 10.0 0.00 0.00 0.00 83 1023.4
20260830145041 76 257 5.0 8.0 0.00 0.00 0.00 83 1023.4
20260830144556 76 261 3.0 7.0 0.00 0.00 0.00 84 1023.4
20260830144038 76 246 2.0 7.0 0.00 0.00 0.00 84 1023.4
20260830143541 75 254 2.0 7.0 0.00 0.00 0.00 84 1023.4
20260830143107 75 262 2.0 4.0 0.00 0.00 0.00 84 1023.2
20260830142538 75 250 2.0 4.0 0.00 0.00 0.00 84 1023.2
20260830142038 75 335 3.0 4.0 0.00 0.00 0.00 85 1023.4
20260830141601 75 0 0.0 5.0 0.00 0.00 0.00 84 1023.3
20260830141037 74 336 2.0 5.0 0.00 0.00 0.00 85 1023.4
20260830140539 74 336 2.0 5.0 0.00 0.00 0.00 85 1023.4
20260830135538 74 341 1.0 3.0 0.00 0.00 0.00 84 1023.4
20260830135038 74 0 0.0 3.0 0.00 0.00 0.00 84 1023.2
20260830134558 74 347 0.0 3.0 0.00 0.00 0.00 84 1023.1
20260830134040 73 347 1.0 3.0 0.00 0.00 0.00 84 1023.3
20260830133539 73 5 0.0 3.0 0.00 0.00 0.00 84 1023.3
20260830133103 73 5 0.0 3.0 0.00 0.00 0.00 84 1023.3
20260830132542 73 0 1.0 4.0 0.00 0.00 0.00 84 1023.4
20260830132040 73 0 1.0 4.0 0.00 0.00 0.00 84 1023.4
20260830131600 73 338 1.0 4.0 0.00 0.00 0.00 84 1023.3
20260830131044 73 338 0.0 2.0 0.00 0.00 0.00 83 1023.4
20260830130540 73 0 0.0 2.0 0.00 0.00 0.00 83 1023.2
20260830130059 73 348 0.0 1.0 0.00 0.00 0.00 82 1023.1
20260830125540 72 0 0.0 2.0 0.00 0.00 0.00 82 1023.1
20260830125040 71 0 0.0 2.0 0.00 0.00 0.00 82 1023.1
20260830124615 71 0 0.0 3.0 0.00 0.00 0.00 83 1023.0
20260830124040 71 28 1.0 3.0 0.00 0.00 0.00 82 1023.1
20260830123543 70 5 2.0 4.0 0.00 0.00 0.00 83 1023.0
20260830123106 70 28 2.0 4.0 0.00 0.00 0.00 83 1023.0
20260830122540 70 19 1.0 4.0 0.00 0.00 0.00 83 1023.0
20260830122040 70 29 1.0 3.0 0.00 0.00 0.00 83 1022.8
20260830121601 69 0 1.0 3.0 0.00 0.00 0.00 83 1022.8
20260830121039 69 0 1.0 3.0 0.00 0.00 0.00 83 1022.7
20260830120539 69 23 1.0 3.0 0.00 0.00 0.00 83 1022.7
20260830120059 69 38 1.0 3.0 0.00 0.00 0.00 83 1022.7
20260830115540 69 0 0.0 2.0 0.00 0.00 0.00 83 1022.5
20260830115040 69 0 0.0 2.0 0.00 0.00 0.00 83 1022.4
20260830114606 69 0 0.0 3.0 0.00 0.00 0.00 83 1022.4
20260830114039 69 25 1.0 4.0 0.00 0.00 0.00 83 1022.4
20260830113539 69 31 1.0 4.0 0.00 0.00 0.00 83 1022.3
20260830113105 69 19 2.0 4.0 0.00 0.00 0.00 84 1022.3
20260830112539 69 0 0.0 3.0 0.00 0.00 0.00 83 1022.4
20260830112040 69 27 1.0 3.0 0.00 0.00 0.00 83 1022.2
20260830111600 69 5 2.0 3.0 0.00 0.00 0.00 83 1022.3
20260830111040 69 31 0.0 3.0 0.00 0.00 0.00 83 1022.1
20260830110540 69 0 0.0 4.0 0.00 0.00 0.00 83 1022.2
20260830110058 69 31 2.0 4.0 0.00 0.00 0.00 83 1022.1
20260830105540 69 24 2.0 4.0 0.00 0.00 0.00 83 1022.0
20260830105039 69 0 0.0 3.0 0.00 0.00 0.00 84 1022.1
20260830104606 69 0 1.0 3.0 0.00 0.00 0.00 83 1022.0
20260830104040 70 31 1.0 3.0 0.00 0.00 0.00 83 1022.1
20260830103540 69 0 1.0 2.0 0.00 0.00 0.00 84 1022.0
20260830103059 70 29 0.0 2.0 0.00 0.00 0.00 84 1022.0
20260830102540 70 0 0.0 0.0 0.00 0.00 0.00 84 1021.9
20260830102039 70 0 0.0 1.0 0.00 0.00 0.00 84 1021.9
20260830101559 70 0 0.0 2.0 0.00 0.00 0.00 83 1021.9
20260830101040 70 0 0.0 2.0 0.00 0.00 0.00 83 1021.7
20260830100543 70 0 0.0 2.0 0.00 0.00 0.00 83 1021.8
20260830100055 70 0 0.0 1.0 0.00 0.00 0.00 83 1021.7
20260830095540 70 0 0.0 3.0 0.00 0.00 0.00 83 1021.7
20260830095040 70 0 0.0 3.0 0.00 0.00 0.00 83 1021.7
20260830094552 70 15 1.0 3.0 0.00 0.00 0.00 83 1021.6
20260830094039 70 30 0.0 3.0 0.00 0.00 0.00 84 1021.8
20260830093539 70 40 0.0 2.0 0.00 0.00 0.00 83 1021.7
20260830093058 70 0 0.0 4.0 0.00 0.00 0.00 84 1021.8
20260830092542 70 0 0.0 5.0 0.00 0.00 0.00 84 1021.7
20260830092039 70 21 2.0 5.0 0.00 0.00 0.00 84 1021.8
20260830091557 70 29 0.0 1.0 0.00 0.00 0.00 84 1021.7
20260830091043 70 0 0.0 2.0 0.00 0.00 0.00 84 1021.7
20260830090540 70 0 0.0 3.0 0.00 0.00 0.00 84 1021.8
20260830090112 70 22 0.0 3.0 0.00 0.00 0.00 84 1021.9
20260830085543 70 32 2.0 3.0 0.00 0.00 0.00 84 1021.8
20260830085041 70 24 0.0 3.0 0.00 0.00 0.00 84 1021.7
20260830084559 70 22 1.0 3.0 0.00 0.00 0.00 84 1021.8
20260830084040 70 24 1.0 3.0 0.00 0.00 0.00 84 1021.7
20260830083541 70 5 0.0 3.0 0.00 0.00 0.00 83 1021.8
20260830083127 70 5 0.0 2.0 0.00 0.00 0.00 84 1021.8
20260830082541 70 0 0.0 3.0 0.00 0.00 0.00 84 1021.8
20260830082040 70 28 1.0 3.0 0.00 0.00 0.00 84 1021.7
20260830081601 70 32 1.0 3.0 0.00 0.00 0.00 84 1021.8
20260830081040 70 24 0.0 3.0 0.00 0.00 0.00 84 1021.9
20260830080540 70 5 0.0 4.0 0.00 0.00 0.00 84 1021.7
20260830080101 70 26 1.0 4.0 0.00 0.00 0.00 84 1021.7
20260830075540 70 32 3.0 4.0 0.00 0.00 0.00 84 1021.7
20260830075039 70 355 2.0 4.0 0.00 0.00 0.00 84 1021.6
20260830074557 70 30 2.0 4.0 0.00 0.00 0.00 84 1021.6
20260830074042 70 28 2.0 4.0 0.00 0.00 0.00 84 1021.6
20260830073539 70 29 3.0 4.0 0.00 0.00 0.00 84 1021.6
20260830073109 70 17 1.0 4.0 0.00 0.00 0.00 84 1021.5
20260830072541 70 19 1.0 3.0 0.00 0.00 0.00 84 1021.5
20260830072040 70 25 1.0 4.0 0.00 0.00 0.00 84 1021.4
20260830071558 70 17 2.0 4.0 0.00 0.00 0.00 84 1021.5
20260830071039 70 32 1.0 4.0 0.00 0.00 0.00 84 1021.5
20260830070539 70 25 0.0 4.0 0.00 0.00 0.00 84 1021.6
20260830065543 71 24 1.0 5.0 0.00 0.00 0.00 84 1021.7
20260830065040 71 31 2.0 5.0 0.00 0.00 0.00 84 1021.8
20260830064606 71 24 3.0 5.0 0.00 0.00 0.00 84 1021.8
20260830064043 71 15 0.0 3.0 0.00 0.00 0.00 84 1021.9
20260830063544 71 0 0.0 3.0 0.00 0.00 0.00 83 1021.9
20260830063059 71 24 1.0 5.0 0.00 0.00 0.00 83 1022.0
20260830062541 71 0 2.0 5.0 0.00 0.00 0.00 83 1022.0
20260830062043 71 19 2.0 5.0 0.00 0.00 0.00 83 1022.0
20260830061557 71 30 1.0 3.0 0.00 0.00 0.00 83 1022.0
20260830061040 71 0 1.0 3.0 0.00 0.00 0.00 83 1022.0
20260830060544 71 5 0.0 2.0 0.00 0.00 0.00 84 1022.0
20260830060056 71 26 0.0 2.0 0.00 0.00 0.00 84 1022.2
20260830055539 71 0 0.0 4.0 0.00 0.00 0.00 84 1022.1
20260830055040 71 28 2.0 4.0 0.00 0.00 0.00 83 1022.1
20260830054608 71 0 0.0 4.0 0.00 0.00 0.00 84 1022.2
20260830054039 71 5 2.0 4.0 0.00 0.00 0.00 83 1022.2
20260830053539 71 24 2.0 5.0 0.00 0.00 0.00 83 1022.4
20260830053059 71 5 2.0 5.0 0.00 0.00 0.00 84 1022.3
20260830052539 71 17 2.0 5.0 0.00 0.00 0.00 84 1022.3
20260830052039 71 27 0.0 2.0 0.00 0.00 0.00 84 1022.4
20260830051554 71 27 1.0 2.0 0.00 0.00 0.00 84 1022.5
20260830051042 71 27 0.0 2.0 0.00 0.00 0.00 84 1022.4